Home > Weather > Brownsville > Past weeks

Flag for USA Weather for the Past 2 Weeks in Brownsville, Texas, USA

Now
85 °F

Partly sunny.


Feels Like: 93 °F
Forecast: 77 / 88 °F
Wind: 13 mph from Northeast

Location: Brownsville / South Padre Island International Airport

Current Time: May 1, 2016 at 6:21:37 PM

Latest Report: May 1, 2016 at 4:53 PM


Visibility: 8 mi

Pressure: 29.70 "Hg

Humidity: 72%

Dew Point: 75 °F

Location of BrownsvilleLocation

Historic Weather in Brownsville — Graph

°F

Brownsville Temperature Yesterday

Maximum temperature yesterday: 88 °F (at 2:53 PM)
Minimum temperature yesterday: 78 °F (at 1:53 AM)
Average temperature yesterday: 81 °F

High & Low Weather Summary for the Past Weeks

 TemperatureHumidityPressure
High90 °F (Apr 18, 2:53 PM)100% (Apr 20, 5:03 AM)30.09 "Hg (Apr 20, 5:03 AM)
Low67 °F (Apr 18, 10:53 PM)43% (Apr 18, 3:53 PM)29.57 "Hg (Apr 27, 4:53 AM)
Average78 °F85%29.82 "Hg
* Reported Apr 16 3:53 PM — May 1 3:53 PM, Brownsville, Weather by CustomWeather, © 2016

Note: Actual official high and low records may vary slightly from our data, if they occured in-between our weather recording intervals... More about our weather records

Advertising

Brownsville Weather History for the Previous 24 Hours

Scroll right to see more
 ConditionsComfort  
Time TempWeatherWind HumidityBarometerVisibility
3:53 PM
Sun, May 1
87 °FMore clouds than sun.10 mph69%29.71 "Hg8 mi
2:53 PM88 °FPartly sunny.9 mph65%29.72 "Hg8 mi
1:53 PM87 °FScattered clouds.7 mph67%29.74 "Hg9 mi
12:53 PM86 °FBroken clouds.8 mph70%29.76 "Hg8 mi
12:03 PM83 °FMostly cloudy.10 mph74%29.78 "Hg7 mi
10:53 AM84 °FPassing clouds.9 mph74%29.77 "Hg7 mi
10:02 AM81 °FMostly cloudy.9 mph82%29.77 "Hg6 mi
9:53 AM81 °FMostly cloudy.12 mph85%29.76 "Hg5 mi
8:53 AM79 °FFog.7 mph94%29.75 "Hg4 mi
8:00 AM77 °FFog.5 mph100%29.75 "Hg2 mi
7:01 AM76 °FFog.3 mph100%29.73 "Hg2 mi
5:53 AM77 °FFog.5 mph100%29.71 "Hg3 mi
4:53 AM77 °FFog.6 mph100%29.71 "Hg3 mi
3:53 AM78 °FFog.6 mph96%29.70 "Hg4 mi
2:53 AM78 °FFog.7 mph96%29.70 "Hg4 mi
1:53 AM78 °FFog.5 mph100%29.71 "Hg3 mi
12:53 AM78 °FFog.3 mph96%29.72 "Hg3 mi
11:53 PM
Sat, Apr 30
78 °FFog.6 mph96%29.72 "Hg5 mi
10:53 PM78 °FFog.5 mph96%29.73 "Hg5 mi
10:03 PM78 °FFog.3 mph93%29.72 "Hg6 mi
8:53 PM79 °FSunny.5 mph90%29.67 "Hg7 mi
7:53 PM80 °FSunny.7 mph87%29.65 "Hg7 mi
6:53 PM83 °FPassing clouds.10 mph79%29.63 "Hg7 mi
Weather by CustomWeather, © 2016

See weather overviewHow to use our weather pages